H1 CPF 2 NER 2025 9 15 9 258 01 glonass138 H2 1805301 9138 43508 2025 9 15 0 0 0 2025 9 18 23 45 0 900 1 1 0 0 0 1 H9 10 0 60933 0.00000 0 10379237.735 6433818.844 -22395948.213 10 0 60933 900.00000 0 10583867.776 9128167.564 -21341737.113 10 0 60933 1800.00000 0 10970817.055 11645462.842 -19873195.473 10 0 60933 2700.00000 0 11507064.321 13925851.002 -18018910.858 10 0 60933 3600.00000 0 12150024.125 15918046.567 -15814938.888 10 0 60933 4500.00000 0 12849443.126 17581235.325 -13304101.163 10 0 60933 5400.00000 0 13549633.533 18886547.564 -10535153.502 10 0 60933 6300.00000 0 14191949.538 19818041.488 -7561840.415 10 0 60933 7200.00000 0 14717402.367 20373157.097 -4441853.984 10 0 60933 8100.00000 0 15069303.818 20562622.852 -1235717.107 10 0 60933 9000.00000 0 15195826.899 20409820.216 1994387.420 10 0 60933 9900.00000 0 15052375.603 19949633.673 5185819.383 10 0 60933 10800.00000 0 14603663.833 19226835.270 8276692.040 10 0 60933 11700.00000 0 13825415.599 18294072.082 11207068.080 10 0 60933 12600.00000 0 12705614.450 17209541.470 13920117.634 10 0 60933 13500.00000 0 11245248.860 16034451.908 16363216.133 10 0 60933 14400.00000 0 9458521.318 14830375.992 18488961.092 10 0 60933 15300.00000 0 7372511.155 13656606.570 20256088.445 10 0 60933 16200.00000 0 5026303.792 12567626.651 21630271.114 10 0 60933 17100.00000 0 2469621.208 11610798.919 22584784.750 10 0 60933 18000.00000 0 -238990.929 10824371.454 23101028.001 10 0 60933 18900.00000 0 -3034345.647 10235883.061 23168887.392 10 0 60933 19800.00000 0 -5847077.467 9861034.992 22786939.681 10 0 60933 20700.00000 0 -8606284.664 9703076.509 21962487.428 10 0 60933 21600.00000 0 -11242242.463 9752730.322 20711426.511 10 0 60933 22500.00000 0 -13689075.390 9988661.469 19057947.392 10 0 60933 23400.00000 0 -15887278.286 10378470.446 17034074.956 10 0 60933 24300.00000 0 -17785981.395 10880169.300 14679054.914 10 0 60933 25200.00000 0 -19344865.230 11444078.911 12038597.732 10 0 60933 26100.00000 0 -20535645.177 12015067.677 9163994.067 10 0 60933 27000.00000 0 -21343063.580 12535036.974 6111118.467 10 0 60933 27900.00000 0 -21765347.651 12945547.991 2939340.554 10 0 60933 28800.00000 0 -21814113.936 13190478.055 -289634.798 10 0 60933 29700.00000 0 -21513723.626 13218593.054 -3512975.160 10 0 60933 30600.00000 0 -20900116.276 12985925.813 -6667951.720 10 0 60933 31500.00000 0 -20019171.837 12457858.414 -9693168.894 10 0 60933 32400.00000 0 -18924670.996 11610819.028 -12529767.366 10 0 60933 33300.00000 0 -17675940.888 10433520.273 -15122576.157 10 0 60933 34200.00000 0 -16335286.569 8927685.706 -17421190.500 10 0 60933 35100.00000 0 -14965317.460 7108232.943 -19380954.060 10 0 60933 36000.00000 0 -13626282.137 5002904.951 -20963826.297 10 0 60933 36900.00000 0 -12373524.054 2651364.495 -22139118.237 10 0 60933 37800.00000 0 -11255165.257 103789.234 -22884082.889 10 0 60933 38700.00000 0 -10310115.037 -2580974.137 -23184349.513 10 0 60933 39600.00000 0 -9566486.466 -5337620.002 -23034194.142 10 0 60933 40500.00000 0 -9040486.248 -8096866.491 -22436641.929 10 0 60933 41400.00000 0 -8735823.254 -10788107.937 -21403400.108 10 0 60933 42300.00000 0 -8643659.302 -13342127.385 -19954623.484 10 0 60933 43200.00000 0 -8743102.935 -15693757.225 -18118517.432 10 0 60933 44100.00000 0 -9002224.340 -17784378.252 -15930786.326 10 0 60933 45000.00000 0 -9379547.746 -19564154.214 -13433938.164 10 0 60933 45900.00000 0 -9825957.810 -20993909.958 -10676458.781 10 0 60933 46800.00000 0 -10286939.184 -22046576.073 -7711871.490 10 0 60933 47700.00000 0 -10705054.589 -22708140.869 -4597700.171 10 0 60933 48600.00000 0 -11022556.739 -22978071.041 -1394355.743 10 0 60933 49500.00000 0 -11184023.863 -22869184.418 1836032.618 10 0 60933 50400.00000 0 -11138907.545 -22406981.009 5030818.953 10 0 60933 51300.00000 0 -10843885.297 -21628461.075 8128051.518 10 0 60933 52200.00000 0 -10264918.415 -20580480.326 11067670.000 10 0 60933 53100.00000 0 -9378927.975 -19317711.566 13792665.892 10 0 60933 54000.00000 0 -8175017.842 -17900298.403 16250183.760 10 0 60933 54900.00000 0 -6655192.333 -16391299.352 18392542.444 10 0 60933 55800.00000 0 -4834537.352 -14854029.252 20178156.717 10 0 60933 56700.00000 0 -2740855.982 -13349409.024 21572341.993 10 0 60933 57600.00000 0 -413772.201 -11933434.298 22547986.901 10 0 60933 58500.00000 0 2096661.570 -10654868.430 23086080.951 10 0 60933 59400.00000 0 4731796.841 -9553255.999 23176087.268 10 0 60933 60300.00000 0 7426586.830 -8657339.589 22816153.074 10 0 60933 61200.00000 0 10112059.814 -7983945.879 22013153.525 10 0 60933 62100.00000 0 12717966.623 -7537387.653 20782567.504 10 0 60933 63000.00000 0 15175493.321 -7309406.831 19148186.979 10 0 60933 63900.00000 0 17419926.952 -7279661.082 17141664.635 10 0 60933 64800.00000 0 19393163.781 -7416733.791 14801907.593 10 0 60933 65700.00000 0 21045955.564 -7679625.001 12174328.032 10 0 60933 66600.00000 0 22339799.873 -8019660.580 9309964.589 10 0 60933 67500.00000 0 23248395.106 -8382738.832 6264491.109 10 0 60933 68400.00000 0 23758598.869 -8711819.211 3097131.911 10 0 60933 69300.00000 0 23870849.206 -8949547.131 -130495.055 10 0 60933 70200.00000 0 23599030.867 -9040902.784 -3355584.093 10 0 60933 71100.00000 0 22969792.359 -8935760.581 -6515372.330 10 0 60933 72000.00000 0 22021342.915 -8591249.490 -9548369.977 10 0 60933 72900.00000 0 20801780.738 -7973812.932 -12395565.254 10 0 60933 73800.00000 0 19367023.760 -7060879.790 -15001579.546 10 0 60933 74700.00000 0 17778431.038 -5842074.677 -17315749.484 10 0 60933 75600.00000 0 16100215.827 -4319915.388 -19293114.398 10 0 60933 76500.00000 0 14396759.915 -2509967.258 -20895289.806 10 0 60933 77400.00000 0 12729942.581 -440447.332 -22091210.057 10 0 60933 78300.00000 0 11156596.505 1848705.608 -22857726.210 10 0 60933 79200.00000 0 9726197.061 4307256.637 -23180048.214 10 0 60933 80100.00000 0 8478881.225 6876536.685 -23052023.603 10 0 60933 81000.00000 0 7443878.094 9491663.652 -22476248.154 10 0 60933 81900.00000 0 6638415.405 12084030.550 -21464007.117 10 0 60933 82800.00000 0 6067146.427 14583957.583 -20035048.794 10 0 60933 83700.00000 0 5722119.642 16923398.481 -18217195.302 10 0 60933 84600.00000 0 5583290.988 19038589.203 -16045798.298 10 0 60933 85500.00000 0 5619555.759 20872529.585 -13563050.309 10 0 60934 0.00000 0 5790255.632 22377195.350 -10817165.198 10 0 60934 900.00000 0 6047096.557 23515389.941 -7861441.960 10 0 60934 1800.00000 0 6336395.829 24262157.869 -4753233.575 10 0 60934 2700.00000 0 6601563.451 24605704.111 -1552835.773 10 0 60934 3600.00000 0 6785712.612 24547779.825 1677679.290 10 0 60934 4500.00000 0 6834288.998 24103519.802 4875663.387 10 0 60934 5400.00000 0 6697607.802 23300738.890 7979103.235 10 0 60934 6300.00000 0 6333191.159 22178717.250 10927818.873 10 0 60934 7200.00000 0 5707807.139 20786525.610 13664626.300 10 0 60934 8100.00000 0 4799123.864 19180960.710 16136442.107 10 0 60934 9000.00000 0 3596908.445 17424177.267 18295309.043 10 0 60934 9900.00000 0 2103719.343 15581115.319 20099322.967 10 0 60934 10800.00000 0 335061.907 13716830.120 21513443.667 10 0 60934 11700.00000 0 -1681000.960 11893835.669 22510174.242 10 0 60934 12600.00000 0 -3904768.371 10169572.311 23070096.143 10 0 60934 13500.00000 0 -6286314.676 8594103.572 23182249.720 10 0 60934 14400.00000 0 -8767339.261 7208137.873 22844352.793 10 0 60934 15300.00000 0 -11283377.574 6041457.321 22062852.734 10 0 60934 16200.00000 0 -13766282.880 5111818.893 20852810.512 10 0 60934 17100.00000 0 -16146876.751 4424373.745 19237618.147 10 0 60934 18000.00000 0 -18357658.765 3971628.868 17248554.146 10 0 60934 18900.00000 0 -20335463.068 3733952.608 14924184.600 10 0 60934 19800.00000 0 -22023951.129 3680602.762 12309620.586 10 0 60934 20700.00000 0 -23375836.332 3771233.808 9455645.602 10 0 60934 21600.00000 0 -24354746.947 3957819.473 6417729.505 10 0 60934 22500.00000 0 -24936648.851 4186908.928 3254947.939 10 0 60934 23400.00000 0 -25110767.698 4402120.507 28828.561 10 0 60934 24300.00000 0 -24879971.351 4546766.420 -3197852.960 10 0 60934 25200.00000 0 -24260596.224 4566496.137 -6362302.874 10 0 60934 26100.00000 0 -23281724.831 4411845.108 -9402940.226 10 0 60934 27000.00000 0 -21983945.281 4040579.507 -12260603.623 10 0 60934 27900.00000 0 -20417645.462 3419736.362 -14879709.423 10 0 60934 28800.00000 0 -18640914.444 2527271.540 -17209337.962 10 0 60934 29700.00000 0 -16717140.130 1353244.893 -19204226.169 10 0 60934 30600.00000 0 -14712404.813 -99508.338 -20825647.099 10 0 60934 31500.00000 0 -12692788.501 -1815248.815 -22042159.407 10 0 60934 32400.00000 0 -10721693.284 -3765753.078 -22830212.672 10 0 60934 33300.00000 0 -8857300.689 -5911265.025 -23174597.479 10 0 60934 34200.00000 0 -7150267.865 -8201939.438 -23068732.337 10 0 60934 35100.00000 0 -5641758.036 -10579717.577 -22514782.685 10 0 60934 36000.00000 0 -4361886.255 -12980556.975 -21523610.457 10 0 60934 36900.00000 0 -3328643.917 -15336922.847 -20114555.815 10 0 60934 37800.00000 0 -2547345.312 -17580437.842 -18315055.739 10 0 60934 38700.00000 0 -2010617.624 -19644580.315 -16160107.114 10 0 60934 39600.00000 0 -1698933.101 -21467319.310 -13691584.825 10 0 60934 40500.00000 0 -1581659.542 -22993577.123 -10957428.023 10 0 60934 41400.00000 0 -1618583.642 -24177417.412 -8010710.147 10 0 60934 42300.00000 0 -1761842.039 -24983868.179 -4908610.592 10 0 60934 43200.00000 0 -1958177.966 -25390304.119 -1711307.737 10 0 60934 44100.00000 0 -2151427.767 -25387331.100 1519185.409 10 0 60934 45000.00000 0 -2285132.015 -24979136.254 4720220.444 10 0 60934 45900.00000 0 -2305160.784 -24183289.385 7829724.632 10 0 60934 46800.00000 0 -2162242.027 -23030004.265 10787400.430 10 0 60934 47700.00000 0 -1814286.178 -21560890.822 13535890.395 10 0 60934 48600.00000 0 -1228408.589 -19827250.399 16021885.150 10 0 60934 49500.00000 0 -382564.097 -17887985.152 18197153.264 10 0 60934 50400.00000 0 733275.790 -15807208.636 20019473.443 10 0 60934 51300.00000 0 2116453.551 -13651656.838 21453451.420 10 0 60934 52200.00000 0 3751493.519 -11488007.117 22471206.088 10 0 60934 53100.00000 0 5610513.991 -9380216.198 23052911.912 10 0 60934 54000.00000 0 7654168.029 -7386987.481 23187187.252 10 0 60934 54900.00000 0 9833075.481 -5559472.536 22871321.048 10 0 60934 55800.00000 0 12089688.217 -3939302.012 22111333.158 10 0 60934 56700.00000 0 14360512.439 -2557027.551 20921866.648 10 0 60934 57600.00000 0 16578596.846 -1431039.310 19325913.360 10 0 60934 58500.00000 0 18676183.922 -567004.052 17354377.151 10 0 60934 59400.00000 0 20587414.422 42152.955 15045482.329 10 0 60934 60300.00000 0 22250972.365 415721.709 12444037.802 10 0 60934 61200.00000 0 23612559.774 584159.300 9600570.530 10 0 60934 62100.00000 0 24627097.105 587564.334 6570344.591 10 0 60934 63000.00000 0 25260556.430 473738.822 3412284.791 10 0 60934 63900.00000 0 25491349.598 295920.203 187825.954 10 0 60934 64800.00000 0 25311212.311 110280.358 -3040289.122 10 0 60934 65700.00000 0 24725546.280 -26701.321 -6209238.877 10 0 60934 66600.00000 0 23753204.718 -60878.242 -9257354.367 10 0 60934 67500.00000 0 22425730.059 57022.894 -12125327.761 10 0 60934 68400.00000 0 20786076.196 369070.373 -14757373.476 10 0 60934 69300.00000 0 18886869.377 908104.421 -17102318.465 10 0 60934 70200.00000 0 16788281.418 1696109.469 -19114599.956 10 0 60934 71100.00000 0 14555605.064 2743051.326 -20755151.008 10 0 60934 72000.00000 0 12256633.704 4046229.001 -21992156.794 10 0 60934 72900.00000 0 9958955.409 5590168.940 -22801667.335 10 0 60934 73800.00000 0 7727274.452 7347066.535 -23168055.476 10 0 60934 74700.00000 0 5620871.849 9277756.676 -23084311.961 10 0 60934 75600.00000 0 3691310.142 11333172.970 -22552172.759 10 0 60934 76500.00000 0 1980477.047 13456234.893 -21582076.913 10 0 60934 77400.00000 0 519048.159 15584084.361 -20192956.404 10 0 60934 78300.00000 0 -674568.841 17650578.702 -18411862.548 10 0 60934 79200.00000 0 -1594766.212 19588936.475 -16273436.447 10 0 60934 80100.00000 0 -2248724.004 21334426.168 -13819233.863 10 0 60934 81000.00000 0 -2655856.042 22826986.056 -11096917.551 10 0 60934 81900.00000 0 -2846738.880 24013666.363 -8159332.545 10 0 60934 82800.00000 0 -2861570.104 24850792.112 -5063482.164 10 0 60934 83700.00000 0 -2748221.927 25305756.709 -1869424.389 10 0 60934 84600.00000 0 -2559972.926 25358371.580 1360890.193 10 0 60934 85500.00000 0 -2353014.113 25001715.643 4564816.440 10 0 60935 0.00000 0 -2183834.973 24242449.311 7680225.378 10 0 60935 900.00000 0 -2106599.953 23100579.448 10646705.912 10 0 60935 1800.00000 0 -2170626.526 21608686.118 13406730.230 10 0 60935 2700.00000 0 -2418071.109 19810641.901 15906766.155 10 0 60935 3600.00000 0 -2881920.915 17759877.843 18098311.020 10 0 60935 4500.00000 0 -3584376.722 15517267.630 19938829.050 10 0 60935 5400.00000 0 -4535695.245 13148717.674 21392574.264 10 0 60935 6300.00000 0 -5733540.762 10722562.815 22431283.354 10 0 60935 7200.00000 0 -7162874.367 8306875.344 23034725.388 10 0 60935 8100.00000 0 -8796386.976 5966798.545 23191097.901 10 0 60935 9000.00000 0 -10595459.583 3762014.853 22897261.621 10 0 60935 9900.00000 0 -12511612.296 1744453.334 22158809.029 10 0 60935 10800.00000 0 -14488383.271 -43668.788 20989964.874 10 0 60935 11700.00000 0 -16463560.530 -1571389.484 19413319.827 10 0 60935 12600.00000 0 -18371674.611 -2820066.196 17459401.537 10 0 60935 13500.00000 0 -20146648.699 -3783916.958 15166090.443 10 0 60935 14400.00000 0 -21724495.817 -4470016.044 12577890.734 10 0 60935 15300.00000 0 -23045950.091 -4897744.672 9745069.889 10 0 60935 16200.00000 0 -24058921.381 -5097720.302 6722682.985 10 0 60935 17100.00000 0 -24720669.577 -5110250.196 3569500.555 10 0 60935 18000.00000 0 -24999606.224 -4983375.221 346861.071 10 0 60935 18900.00000 0 -24876646.790 -4770587.530 -2882529.099 10 0 60935 19800.00000 0 -24346055.694 -4528319.770 -6055824.111 10 0 60935 20700.00000 0 -23415747.805 -4313313.396 -9111270.468 10 0 60935 21600.00000 0 -22107033.217 -4179978.877 -11989417.207 10 0 60935 22500.00000 0 -20453815.820 -4177860.914 -14634279.905 10 0 60935 23400.00000 0 -18501279.452 -4349317.184 -16994434.957 10 0 60935 24300.00000 0 -16304117.088 -4727509.855 -19024022.333 10 0 60935 25200.00000 0 -13924377.738 -5334795.590 -20683637.072 10 0 60935 26100.00000 0 -11429021.667 -6181582.579 -21941092.275 10 0 60935 27000.00000 0 -8887286.483 -7265703.194 -22772039.221 10 0 60935 27900.00000 0 -6367974.145 -8572328.913 -23160433.187 10 0 60935 28800.00000 0 -3936771.877 -10074431.242 -23098836.733 10 0 60935 29700.00000 0 -1653718.033 -11733769.381 -22588555.386 10 0 60935 30600.00000 0 429082.475 -13502363.392 -21639603.871 10 0 60935 31500.00000 0 2269399.308 -15324391.333 -20270504.172 10 0 60935 32400.00000 0 3836395.099 -17138431.193 -18507919.831 10 0 60935 33300.00000 0 5111659.592 -18879954.208 -16386133.837 10 0 60935 34200.00000 0 6089718.217 -20483965.596 -13946380.340 10 0 60935 35100.00000 0 6777995.729 -21887682.673 -11236043.119 10 0 60935 36000.00000 0 7196238.220 -23033138.711 -8307736.170 10 0 60935 36900.00000 0 7375419.316 -23869603.887 -5218284.106 10 0 60935 37800.00000 0 7356177.885 -24355722.284 -2027621.916 10 0 60935 38700.00000 0 7186854.032 -24461275.651 1202364.760 10 0 60935 39600.00000 0 6921206.933 -24168500.120 4409036.475 10 0 60935 40500.00000 0 6615911.240 -23472900.750 7530210.881 10 0 60935 41400.00000 0 6327938.003 -22383529.590 10505364.388 10 0 60935 42300.00000 0 6111930.816 -20922715.388 13276801.407 10 0 60935 43200.00000 0 6017687.946 -19125255.801 15790768.813 10 0 60935 44100.00000 0 6087856.764 -17037105.313 17998494.332 10 0 60935 45000.00000 0 6355937.814 -14713612.960 19857129.098 10 0 60935 45900.00000 0 6844682.903 -12217382.529 21330576.553 10 0 60935 46800.00000 0 7564955.174 -9615843.465 22390192.030 10 0 60935 47700.00000 0 8515099.886 -6978632.649 23015339.775 10 0 60935 48600.00000 0 9680853.399 -4374894.912 23193796.789 10 0 60935 49500.00000 0 11035795.503 -1870613.577 22921995.647 10 0 60935 50400.00000 0 12542327.619 473918.909 22205101.293 10 0 60935 51300.00000 0 14153137.413 2606385.834 21056919.811 10 0 60935 52200.00000 0 15813090.001 4484392.201 19499640.194 10 0 60935 53100.00000 0 17461467.794 6076991.226 17563413.220 10 0 60935 54000.00000 0 19034466.138 7365728.137 15285774.627 10 0 60935 54900.00000 0 20467840.732 8345157.984 12710922.871 10 0 60935 55800.00000 0 21699595.901 9022816.146 9888864.711 10 0 60935 56700.00000 0 22672600.554 9418643.158 6874444.723 10 0 60935 57600.00000 0 23337021.249 9563888.610 3726277.403 10 0 60935 58500.00000 0 23652469.014 9499540.971 505602.815 10 0 60935 59400.00000 0 23589768.495 9274350.501 -2724911.404 10 0 60935 60300.00000 0 23132273.740 8942529.876 -5902397.632 10 0 60935 61200.00000 0 22276674.172 8561231.003 -8965020.448 10 0 60935 62100.00000 0 21033255.939 8187906.113 -11853188.439 10 0 60935 63000.00000 0 19425607.074 7877666.133 -14510720.985 10 0 60935 63900.00000 0 17489778.521 7680749.344 -16885946.498 10 0 60935 64800.00000 0 15272936.249 7640208.419 -18932710.147 10 0 60935 65700.00000 0 12831561.046 7789914.386 -20611271.273 10 0 60935 66600.00000 0 10229271.656 8152962.339 -21889073.093 10 0 60935 67500.00000 0 7534362.423 8740546.413 -22741370.156 10 0 60935 68400.00000 0 4817158.287 9551351.491 -23151701.992 10 0 60935 69300.00000 0 2147297.270 10571487.161 -23112204.532 10 0 60935 70200.00000 0 -408946.849 11774966.576 -22623754.092 10 0 60935 71100.00000 0 -2791191.055 13124709.949 -21695941.889 10 0 60935 72000.00000 0 -4947214.749 14574030.511 -20346880.272 10 0 60935 72900.00000 0 -6834883.442 16068540.617 -18602844.868 10 0 60935 73800.00000 0 -8423646.026 17548398.222 -16497759.905 10 0 60935 74700.00000 0 -9695544.982 18950799.740 -14072536.791 10 0 60935 75600.00000 0 -10645699.213 20212615.079 -11374278.743 10 0 60935 76500.00000 0 -11282241.140 21273054.663 -8455366.731 10 0 60935 77400.00000 0 -11625712.376 22076256.866 -5372444.326 10 0 60935 78300.00000 0 -11707944.811 22573687.535 -2185320.892 10 0 60935 79200.00000 0 -11570475.381 22726251.087 1044185.749 10 0 60935 80100.00000 0 -11262562.175 22506024.610 4253444.904 10 0 60935 81000.00000 0 -10838886.125 21897542.097 7380223.766 10 0 60935 81900.00000 0 -10357035.584 20898574.710 10363890.070 10 0 60935 82800.00000 0 -9874880.082 19520373.948 13146583.440 10 0 60935 83700.00000 0 -9447944.073 17787366.950 15674333.019 10 0 60935 84600.00000 0 -9126891.344 15736315.927 17898100.040 10 0 60935 85500.00000 0 -8955226.105 13414975.954 19774725.482 10 0 60936 0.00000 0 -8967307.561 10880306.330 21267764.795 10 0 60936 900.00000 0 -9186761.774 8196307.500 22348194.637 10 0 60936 1800.00000 0 -9625357.959 5431575.837 22994976.335 10 0 60936 2700.00000 0 -10282397.040 2656672.256 23195468.012 10 0 60936 3600.00000 0 -11144639.125 -58583.828 22945675.275 10 0 60936 4500.00000 0 -12186774.000 -2647785.118 22250336.204 10 0 60936 5400.00000 0 -13372416.156 -5050461.362 21122838.347 10 0 60936 6300.00000 0 -14655583.934 -7214354.430 19584968.579 10 0 60936 7200.00000 0 -15982601.891 -9097349.378 17666499.791 10 0 60936 8100.00000 0 -17294347.580 -10668981.529 15404621.475 10 0 60936 9000.00000 0 -18528749.053 -11911456.980 12843224.292 10 0 60936 9900.00000 0 -19623428.417 -12820144.128 10032051.794 10 0 60936 10800.00000 0 -20518380.105 -13403515.961 7025735.204 10 0 60936 11700.00000 0 -21158570.589 -13682545.943 3882729.836 10 0 60936 12600.00000 0 -21496349.101 -13689583.456 664174.002 10 0 60936 13500.00000 0 -21493566.609 -13466756.988 -2567306.896 10 0 60936 14400.00000 0 -21123312.450 -13063973.403 -5748827.033 10 0 60936 15300.00000 0 -20371194.108 -12536598.967 -8818472.691 10 0 60936 16200.00000 0 -19236105.099 -11942921.429 -11716515.592 10 0 60936 17100.00000 0 -17730447.656 -11341501.752 -14386582.424 10 0 60936 18000.00000 0 -15879800.214 -10788528.695 -16776756.906 10 0 60936 18900.00000 0 -13722043.240 -10335289.124 -18840592.397 10 0 60936 19800.00000 0 -11305979.926 -10025861.673 -20538015.114 10 0 60936 20700.00000 0 -8689509.466 -9895131.630 -21836100.426 10 0 60936 21600.00000 0 -5937429.349 -9967210.945 -22709707.575 10 0 60936 22500.00000 0 -3118958.347 -10254329.831 -23141961.117 10 0 60936 23400.00000 0 -305083.309 -10756246.348 -23124570.468 10 0 60936 24300.00000 0 2434160.164 -11460198.349 -22657982.239 10 0 60936 25200.00000 0 5032360.722 -12341399.374 -21751363.115 10 0 60936 26100.00000 0 7429247.672 -13364057.222 -20422414.310 10 0 60936 27000.00000 0 9572947.390 -14482872.106 -18697021.660 10 0 60936 27900.00000 0 11421887.283 -15644951.291 -16608748.423 10 0 60936 28800.00000 0 12946269.630 -16792059.754 -14198180.775 10 0 60936 29700.00000 0 14129055.547 -17863112.415 -11512138.647 10 0 60936 30600.00000 0 14966419.758 -18796803.374 -8602767.067 10 0 60936 31500.00000 0 15467658.789 -19534261.867 -5526525.492 10 0 60936 32400.00000 0 15654557.971 -20021623.470 -2343094.513 10 0 60936 33300.00000 0 15560245.134 -20212408.565 885779.033 10 0 60936 34200.00000 0 15227580.241 -20069608.116 4097476.295 10 0 60936 35100.00000 0 14707149.507 -19567388.932 7229716.951 10 0 60936 36000.00000 0 14054948.983 -18692346.509 10221762.775 10 0 60936 36900.00000 0 13329855.480 -17444252.365 13015591.031 10 0 60936 37800.00000 0 12590991.435 -15836263.869 15557015.225 10 0 60936 38700.00000 0 11895094.647 -13894586.875 17796731.826 10 0 60936 39600.00000 0 11294003.476 -11657604.249 19691273.019 10 0 60936 40500.00000 0 10832363.171 -9174505.457 21203847.472 10 0 60936 41400.00000 0 10545649.679 -6503473.009 22305053.240 10 0 60936 42300.00000 0 10458594.054 -3709499.924 22973449.299 10 0 60936 43200.00000 0 10584073.873 -861927.563 23195974.830 10 0 60936 44100.00000 0 10922518.666 1968195.212 22968208.123 10 0 60936 45000.00000 0 11461854.999 4710823.049 22294459.801 10 0 60936 45900.00000 0 12177994.373 7299583.788 21187698.071 10 0 60936 46800.00000 0 13035844.416 9674296.739 19669306.722 10 0 60936 47700.00000 0 13990801.908 11783235.459 17768679.653 10 0 60936 48600.00000 0 14990665.750 13585041.287 15522658.868 10 0 60936 49500.00000 0 15977890.105 15050208.101 12974825.874 10 0 60936 50400.00000 0 16892083.234 16162076.467 10174659.504 10 0 60936 51300.00000 0 17672646.707 16917295.715 7176575.966 10 0 60936 52200.00000 0 18261443.335 17325734.821 4038869.567 10 0 60936 53100.00000 0 18605380.438 17409846.185 822574.863 10 0 60936 54000.00000 0 18658798.327 17203509.670 -2409727.105 10 0 60936 54900.00000 0 18385561.883 16750406.405 -5595134.555 10 0 60936 55800.00000 0 17760765.543 16101991.969 -8671657.755 10 0 60936 56700.00000 0 16771978.460 15315155.692 -11579433.844 10 0 60936 57600.00000 0 15419976.122 14449666.157 -14261899.041 10 0 60936 58500.00000 0 13718926.679 13565512.019 -16666894.521 10 0 60936 59400.00000 0 11696023.416 12720251.470 -18747683.891 10 0 60936 60300.00000 0 9390578.306 11966483.026 -20463862.195 10 0 60936 61200.00000 0 6852614.363 11349544.826 -21782138.813 10 0 60936 62100.00000 0 4141015.503 10905539.558 -22676979.434 10 0 60936 63000.00000 0 1321311.003 10659767.979 -23131095.239 10 0 60936 63900.00000 0 -1536813.230 10625636.514 -23135770.535 10 0 60936 64800.00000 0 -4362173.315 10804084.163 -22691023.340 10 0 60936 65700.00000 0 -7084805.923 11183552.048 -21805596.553 10 0 60936 66600.00000 0 -9638634.394 11740496.065 -20496780.576 10 0 60936 67500.00000 0 -11963972.630 12440420.376 -18790071.299 10 0 60936 68400.00000 0 -14009763.847 13239387.752 -16718670.392 10 0 60936 69300.00000 0 -15735462.421 14085942.819 -14322837.741 10 0 60936 70200.00000 0 -17112481.922 14923367.142 -11649108.542 10 0 60936 71100.00000 0 -18125150.518 15692171.156 -8749390.112 10 0 60936 72000.00000 0 -18771135.343 16332718.097 -5679955.760 10 0 60936 72900.00000 0 -19061319.524 16787869.532 -2500355.053 10 0 60936 73800.00000 0 -19019138.345 17005541.149 727738.602 10 0 60936 74700.00000 0 -18679403.470 16941061.182 3941720.808 10 0 60936 75600.00000 0 -18086665.497 16559232.057 7079266.485 10 0 60936 76500.00000 0 -17293184.305 15836008.253 10079534.337 10 0 60936 77400.00000 0 -16356592.905 14759719.335 12884342.251 10 0 60936 78300.00000 0 -15337353.229 13331786.160 15439291.121 10 0 60936 79200.00000 0 -14296110.790 11566899.252 17694815.655 10 0 60936 80100.00000 0 -13291059.248 9492650.804 19607142.146 10 0 60936 81000.00000 0 -12375425.353 7148634.351 21139135.084 10 0 60936 81900.00000 0 -11595179.598 4585048.209 22261016.660 10 0 60936 82800.00000 0 -10987068.472 1860859.347 22950945.486 10 0 60936 83700.00000 0 -10577050.756 -958397.499 23195443.563 10 0 60936 84600.00000 0 -10379203.514 -3803095.526 22989663.190 10 0 60936 85500.00000 0 -10395143.933 -6602164.904 22337488.392 99